Home   Weather   Sevierville   Past weeks

Flag for USA Past Weather in Sevierville, Tennessee, USA — Yesterday and Last 2 Weeks

Now
62 °F

Light rain. Overcast.


Feels Like: 62 °F
Forecast: 61 / 77 °F
Wind: 8 mph from North

Location: McGhee Tyson Airport

Current Time: Sep 27, 2016 at 8:15:48 AM

Latest Report: Sep 27, 2016 at 7:53 AM


Visibility: 10 mi

Pressure: 29.99 "Hg

Humidity: 83%

Dew Point: 57 °F

Location of SeviervilleLocation

Past Weather in Sevierville — Graph

°F

Sevierville Temperature Yesterday

Maximum temperature yesterday: 85 °F (at 11:53 AM)
Minimum temperature yesterday: 70 °F (at 9:53 PM)
Average temperature yesterday: 74 °F

High & Low Weather Summary for the Past Weeks

 TemperatureHumidityPressure
High93 °F (Sep 15, 3:53 PM)96% (Sep 19, 6:53 AM)30.16 "Hg (Sep 19, 6:53 AM)
Low60 °F (Sep 12, 6:53 AM)25% (Sep 15, 2:53 PM)29.96 "Hg (Sep 19, 4:53 PM)
Average77 °F63%30.05 "Hg
* Reported Sep 12 6:53 AM — Sep 27 6:53 AM, Sevierville, Weather by CustomWeather, © 2016

Note: Actual official high and low records may vary slightly from our data, if they occured in-between our weather recording intervals... More about our weather records

Advertising

Sevierville Weather History for the Previous 24 Hours

Scroll right to see more
 ConditionsComfort  
Time TempWeatherWind HumidityBarometerVisibility
6:53 AM
Tue, Sep 27
64 °FOvercast.8 mph90%29.98 "Hg10 mi
5:59 AM66 °FLight rain. Overcast.7 mph90%29.99 "Hg9 mi
4:53 AM68 °FOvercast.7 mph90%29.97 "Hg10 mi
3:53 AM70 °FLight rain. Overcast.5 mph84%29.97 "Hg10 mi
2:53 AM70 °FOvercast.5 mph87%29.99 "Hg10 mi
2:45 AM70 °FMostly cloudy.5 mph87%30.02 "Hg10 mi
1:53 AM71 °FOvercast.No wind87%29.99 "Hg10 mi
12:53 AM70 °FOvercast.No wind90%30.00 "Hg10 mi
11:53 PM
Mon, Sep 26
70 °FLight rain. Mostly cloudy.No wind90%29.99 "Hg10 mi
10:53 PM70 °FMostly cloudy.No wind90%29.99 "Hg10 mi
9:53 PM70 °FMostly cloudy.No wind90%29.99 "Hg10 mi
8:53 PM71 °FPassing clouds.3 mph84%30.00 "Hg10 mi
7:53 PM71 °FPassing clouds.6 mph87%29.99 "Hg10 mi
6:53 PM71 °FPartly sunny.9 mph87%30.00 "Hg10 mi
5:53 PM73 °FMostly cloudy.9 mph81%29.99 "Hg10 mi
4:53 PM72 °FMostly cloudy.9 mph84%29.99 "Hg10 mi
3:53 PM71 °FThundershowers. Cloudy.5 mph87%30.01 "Hg10 mi
2:53 PM72 °FThunderstorms. Cloudy.18 mph78%30.01 "Hg3 mi
2:02 PM79 °FThundershowers. Broken clouds.9 mph69%30.01 "Hg9 mi
1:53 PM81 °FLight rain. Mostly cloudy.13 mph60%29.99 "Hg9 mi
12:53 PM85 °FPartly sunny.13 mph50%30.02 "Hg10 mi
11:53 AM85 °FBroken clouds.13 mph50%30.02 "Hg10 mi
10:53 AM83 °FPartly sunny.16 mph53%30.03 "Hg10 mi
9:53 AM81 °FScattered clouds.12 mph54%30.02 "Hg10 mi
8:53 AM75 °FPassing clouds.6 mph69%30.05 "Hg10 mi
Weather by CustomWeather, © 2016

See weather overviewHow to use our weather pages